Location: Crescent
(42.8242°N, 73.7329°W)
Time: 19:14:51
(UTC+00:00)

Transit 4A - Pass Details

Date: 25 February 2026
Orbit: 864 x 977 km, 66.8° (Epoch: 10 March)

Event Time Altitude Azimuth Distance (km) Brightness Sun altitude
Rises 06:32:50 0° 197° (SSW) 3,443 - -51.5°
Reaches altitude 10° 06:35:18 10° 194° (SSW) 2,519 - -51.2°
Maximum altitude 06:41:02 60° 115° (ESE) 1,012 - -50.6°
Drops below altitude 10° 06:46:56 10° 37° (NE) 2,601 - -49.9°
Exits shadow 06:47:06 - 37° (NE) 2,666 10.8 -49.9°
Sets 06:49:31 0° 34° (NE) 3,565 11.6 -49.6°
